QPF
0.00 0.00 0.00 0.00 0.00 0.00 0.00 0.00 0.00 0.00 0.00 0.00 0.00 0.00 0.00 0.00 0.00 0.00 0.00 0.00 0.00 0.00 0.01 0.01 0.01 0.00 0.00 0.00 0.00 0.00 0.00 0.00
0.00 0.00 0.00 0.00 0.00 0.00 0.00 0.00 0.00 0.00 0.00 0.00 0.00 0.00 0.00 0.00 0.00 0.00 0.00 0.00 0.00 0.00 0.01 0.06 0.10 0.02 0.00 0.00 0.01 0.02 0.02 0.04
0.00 0.00 0.00 0.00 0.00 0.00 0.00 0.00 0.00 0.00 0.00 0.00 0.00 0.00 0.00 0.00 0.00 0.00 0.00 0.00 0.00 0.00 0.00 0.01 0.04 0.03 0.02 0.03 0.05 0.06 0.03 0.04
0.00 0.00 0.00 0.00 0.00 0.00 0.00 0.00 0.00 0.00 0.00 0.00 0.00 0.00 0.00 0.00 0.00 0.00 0.00 0.00 0.00 0.00 0.00 0.00 0.00 0.00 0.00 0.02 0.03 0.02 0.02 0.02
0.00 0.00 0.00 0.00 0.00 0.00 0.00 0.00 0.00 0.00 0.00 0.00 0.00 0.00 0.00 0.00 0.00 0.00 0.00 0.00 0.00 0.00 0.00 0.00 0.00 0.01 0.01 0.01 0.02 0.07 0.03 0.00
0.00 0.00 0.00 0.00 0.00 0.00 0.00 0.00 0.00 0.00 0.00 0.00 0.00 0.01 0.00 0.00 0.00 0.00 0.01 0.00 0.00 0.00 0.00 0.00 0.01 0.01 0.01 0.01 0.04 0.03 0.01 0.01
0.00 0.00 0.00 0.00 0.00 0.00 0.00 0.00 0.00 0.00 0.00 0.00 0.00 0.01 0.01 0.00 0.00 0.00 0.01 0.00 0.00 0.00 0.00 0.01 0.02 0.02 0.04 0.04 0.04 0.03 0.01 0.01
0.00 0.00 0.00 0.00 0.00 0.00 0.00 0.00 0.00 0.00 0.00 0.00 0.00 0.00 0.01 0.00 0.00 0.00 0.00 0.00 0.00 0.00 0.00 0.00 0.02 0.09 0.11 0.08 0.05 0.03 0.01 0.00
0.00 0.00 0.00 0.00 0.00 0.00 0.00 0.00 0.00 0.00 0.00 0.00 0.00 0.00 0.00 0.00 0.00 0.00 0.00 0.01 0.01 0.01 0.01 0.03 0.06 0.11 0.09 0.06 0.04 0.02 0.00 0.00
0.00 0.00 0.00 0.00 0.00 0.00 0.00 0.00 0.00 0.00 0.00 0.00 0.01 0.00 0.00 0.00 0.00 0.01 0.02 0.02 0.03 0.05 0.03 0.04 0.05 0.03 0.01 0.00 0.00 0.00 0.00 0.00
0.00 0.00 0.00 0.00 0.00 0.00 0.00 0.00 0.00 0.00 0.00 0.00 0.00 0.01 0.02 0.04 0.03 0.04 0.02 0.03 0.02 0.02 0.01 0.01 0.00 0.00 0.00 0.00 0.00 0.00 0.00 0.00
0.00 0.00 0.00 0.00 0.00 0.00 0.00 0.00 0.00 0.00 0.00 0.00 0.01 0.02 0.01 0.01 0.00 0.01 0.01 0.01 0.00 0.00 0.00 0.00 0.00 0.00 0.00 0.00 0.00 0.00 0.00 0.00
0.00 0.00 0.00 0.00 0.00 0.00 0.00 0.00 0.00 0.00 0.00 0.01 0.01 0.01 0.00 0.00 0.00 0.00 0.00 0.00 0.00 0.00 0.00 0.00 0.00 0.00 0.00 0.00 0.00 0.00 0.00 0.00
0.00 0.00 0.00 0.00 0.00 0.00 0.00 0.00 0.00 0.00 0.00 0.00 0.00 0.01 0.00 0.00 0.00 0.00 0.00 0.00 0.00 0.00 0.00 0.00 0.00 0.00 0.00 0.00 0.00 0.00 0.00 0.00
0.00 0.00 0.00 0.00 0.00 0.00 0.00 0.00 0.00 0.00 0.00 0.00 0.00 0.00 0.00 0.00 0.00 0.00 0.00 0.00 0.00 0.00 0.00 0.00 0.00 0.00 0.00 0.00 0.00 0.00 0.00 0.00
0.00 0.00 0.00 0.00 0.00 0.00 0.00 0.00 0.00 0.00 0.00 0.00 0.00 0.00 0.00 0.00 0.00 0.00 0.00 0.00 0.00 0.00 0.00 0.00 0.00 0.00 0.00 0.00 0.00 0.00 0.00 0.00
0.00 0.00 0.00 0.00 0.00 0.00 0.00 0.00 0.00 0.00 0.00 0.00 0.00 0.00 0.00 0.00 0.00 0.00 0.00 0.00 0.00 0.00 0.00 0.00 0.00 0.00 0.00 0.00 0.00 0.00 0.00 0.00
0.00 0.00 0.00 0.00 0.00 0.00 0.00 0.00 0.00 0.00 0.00 0.00 0.00 0.00 0.00 0.00 0.00 0.00 0.00 0.00 0.00 0.00 0.00 0.00 0.00 0.00 0.00 0.00 0.00 0.00 0.00 0.00
0.00 0.00 0.00 0.00 0.00 0.00 0.00 0.00 0.00 0.00 0.00 0.00 0.00 0.00 0.00 0.00 0.00 0.00 0.00 0.00 0.00 0.00 0.00 0.00 0.00 0.00 0.00 0.00 0.00 0.00 0.00 0.00
MSLP
1000.90 1001.22 1001.57 1002.13 1002.57 1003.02 1003.91 1004.80 1005.61 1006.66 1007.91 1008.89 1009.54 1009.70 1009.88 1010.25 1010.51 1010.96 1011.38 1012.19 1012.79 1013.33 1013.91 1014.17 1014.40 1014.98 1015.66 1016.37 1016.91 1017.12 1017.35 1017.65
1000.51 1000.71 1001.10 1001.68 1002.08 1002.76 1003.53 1004.48 1005.43 1006.13 1007.04 1007.90 1008.74 1009.08 1009.46 1009.71 1010.07 1010.15 1010.81 1011.39 1012.13 1012.84 1013.62 1013.98 1014.32 1014.67 1015.36 1016.03 1016.83 1017.36 1017.47 1017.65
1000.17 1000.36 1000.77 1001.23 1001.83 1002.70 1003.62 1004.22 1004.97 1005.87 1006.56 1007.08 1007.84 1008.57 1009.04 1009.31 1009.68 1010.01 1010.22 1010.74 1011.47 1012.16 1013.21 1013.69 1014.33 1014.87 1015.31 1015.67 1016.36 1017.02 1017.47 1017.64
999.60 999.80 1000.09 1000.91 1001.90 1002.75 1003.60 1004.27 1004.68 1005.14 1005.75 1006.72 1007.47 1008.15 1008.68 1009.09 1009.40 1009.74 1010.05 1010.27 1011.12 1011.82 1012.56 1013.36 1013.93 1014.45 1014.84 1015.26 1015.94 1016.54 1017.09 1017.56
999.02 999.16 999.67 1000.66 1001.74 1002.78 1003.71 1004.33 1004.58 1004.94 1005.33 1005.98 1006.57 1007.28 1007.93 1008.33 1008.88 1009.30 1009.88 1010.22 1011.10 1011.80 1012.37 1013.00 1013.73 1014.51 1014.80 1015.02 1015.42 1016.05 1016.76 1017.30
998.03 998.73 999.66 1000.78 1002.16 1003.28 1004.20 1004.55 1004.72 1004.83 1005.01 1005.58 1006.33 1007.13 1008.01 1008.62 1009.22 1009.87 1010.29 1010.75 1011.13 1011.86 1012.28 1012.78 1013.52 1014.12 1014.45 1014.81 1015.36 1015.75 1016.30 1016.92
997.81 998.62 999.95 1001.40 1003.04 1004.12 1004.54 1004.42 1004.59 1004.66 1004.93 1005.58 1006.49 1007.33 1008.27 1009.06 1009.79 1010.21 1010.75 1010.89 1011.28 1011.74 1012.23 1012.74 1013.18 1013.79 1014.28 1014.72 1015.05 1015.48 1015.85 1016.22
998.23 999.63 1000.92 1002.06 1003.60 1004.79 1005.02 1004.70 1004.72 1004.93 1005.26 1006.04 1006.73 1007.35 1007.90 1008.76 1009.60 1010.26 1010.92 1011.26 1011.73 1011.85 1012.26 1012.71 1013.09 1013.45 1014.09 1014.61 1015.01 1015.55 1015.81 1016.09
998.51 999.68 1000.73 1002.14 1003.84 1004.82 1005.45 1005.42 1005.58 1005.87 1006.15 1006.64 1007.11 1007.40 1008.01 1008.60 1009.32 1010.23 1010.82 1011.22 1011.63 1011.93 1012.24 1012.71 1013.24 1013.76 1014.28 1014.78 1015.27 1015.63 1016.00 1016.44
999.16 1000.00 1000.84 1002.43 1003.95 1004.96 1005.56 1005.75 1006.11 1006.37 1006.72 1007.11 1007.29 1007.65 1008.20 1008.64 1009.33 1010.11 1010.59 1011.01 1011.43 1011.92 1012.31 1012.83 1013.44 1013.81 1014.24 1014.63 1014.98 1015.43 1015.74 1016.11
999.09 1000.06 1001.18 1002.60 1004.07 1005.12 1005.79 1006.22 1006.66 1006.86 1007.10 1007.39 1007.66 1008.00 1008.42 1008.96 1009.56 1010.10 1010.45 1010.98 1011.41 1011.86 1012.31 1012.85 1013.30 1013.73 1014.18 1014.52 1015.03 1015.34 1015.55 1015.71
998.32 999.61 1001.00 1002.58 1004.20 1005.04 1005.95 1006.59 1007.04 1007.31 1007.48 1007.70 1008.04 1008.33 1008.66 1009.19 1009.63 1009.96 1010.50 1011.00 1011.38 1011.84 1012.15 1012.62 1013.24 1013.65 1013.94 1014.50 1015.01 1015.36 1015.65 1015.88
997.93 999.22 1000.78 1002.60 1004.00 1005.09 1005.97 1006.72 1007.18 1007.47 1007.70 1007.95 1008.26 1008.50 1008.68 1009.10 1009.55 1009.88 1010.26 1010.59 1011.08 1011.45 1011.91 1012.34 1012.82 1013.38 1013.86 1014.31 1014.69 1015.16 1015.51 1015.74
997.82 998.97 1000.29 1001.95 1003.42 1004.87 1005.92 1006.63 1007.12 1007.41 1007.67 1007.92 1008.43 1008.69 1008.85 1009.12 1009.31 1009.62 1010.17 1010.60 1011.10 1011.65 1012.11 1012.65 1013.06 1013.43 1013.78 1014.23 1014.76 1015.17 1015.67 1015.84
997.74 998.65 999.68 1000.83 1002.51 1004.09 1005.41 1006.24 1006.70 1006.98 1007.18 1007.51 1007.99 1008.45 1009.12 1009.55 1009.76 1009.97 1010.28 1010.78 1011.30 1011.80 1012.24 1012.81 1013.41 1013.93 1014.18 1014.33 1014.65 1014.96 1015.29 1015.84
997.47 998.30 999.30 1000.30 1001.73 1003.32 1004.61 1005.35 1005.89 1006.21 1006.78 1007.39 1007.99 1008.56 1009.03 1009.67 1010.18 1010.54 1010.87 1011.22 1011.68 1012.14 1012.50 1012.82 1013.29 1013.85 1014.24 1014.61 1014.72 1014.78 1015.47 1015.73
996.65 997.74 998.92 1000.03 1001.14 1002.66 1003.81 1004.64 1005.49 1006.02 1006.62 1007.31 1007.95 1008.74 1009.51 1010.18 1010.49 1010.83 1011.27 1011.64 1011.91 1012.18 1012.57 1012.90 1013.33 1013.48 1013.98 1014.28 1014.47 1015.01 1015.24 1015.70
996.28 997.26 998.29 999.32 1000.85 1002.16 1003.51 1004.47 1005.68 1006.44 1007.09 1007.99 1008.64 1009.14 1009.82 1010.41 1010.74 1010.98 1011.26 1011.55 1011.76 1012.20 1012.50 1012.75 1013.03 1013.39 1013.62 1013.82 1014.18 1014.97 1015.17 1015.26
996.01 996.80 997.90 999.50 1001.15 1002.83 1004.23 1004.95 1005.90 1006.74 1007.38 1008.12 1008.93 1009.46 1010.01 1010.40 1010.75 1011.27 1011.69 1011.88 1012.12 1012.22 1012.52 1012.84 1013.24 1013.61 1013.66 1013.65 1014.32 1014.83 1015.00 1015.14
Thickness
5839 5840 5840 5837 5834 5829 5816 5812 5806 5797 5785 5774 5767 5764 5762 5757 5756 5751 5749 5741 5737 5733 5728 5727 5727 5723 5719 5713 5708 5708 5706 5702
5839 5840 5838 5834 5831 5824 5816 5799 5799 5795 5787 5775 5765 5759 5758 5758 5756 5754 5749 5744 5738 5732 5728 5726 5723 5722 5715 5711 5704 5699 5697 5696
5831 5834 5834 5831 5826 5820 5811 5805 5791 5788 5783 5778 5768 5761 5757 5755 5753 5751 5748 5745 5737 5733 5725 5723 5719 5714 5710 5707 5701 5693 5691 5690
5826 5829 5832 5829 5820 5814 5807 5801 5797 5788 5784 5775 5767 5759 5753 5748 5746 5745 5743 5742 5735 5731 5724 5719 5716 5713 5709 5704 5698 5692 5686 5684
5826 5828 5826 5824 5817 5811 5803 5797 5791 5785 5782 5772 5766 5755 5747 5747 5744 5743 5739 5736 5729 5724 5721 5716 5711 5705 5703 5702 5700 5692 5685 5679
5828 5827 5821 5820 5810 5799 5791 5787 5783 5780 5776 5769 5762 5751 5744 5738 5734 5729 5727 5726 5723 5717 5715 5712 5706 5701 5699 5695 5691 5688 5683 5676
5826 5823 5820 5806 5796 5785 5782 5782 5778 5774 5770 5762 5752 5743 5733 5726 5721 5718 5716 5717 5716 5712 5707 5705 5702 5696 5692 5689 5687 5683 5679 5674
5811 5803 5799 5793 5782 5771 5770 5772 5769 5765 5759 5751 5743 5737 5731 5723 5715 5711 5706 5705 5703 5703 5700 5697 5694 5692 5685 5680 5676 5670 5668 5665
5803 5799 5796 5786 5774 5765 5759 5758 5754 5749 5745 5737 5731 5728 5722 5716 5709 5702 5698 5697 5695 5694 5692 5688 5684 5679 5673 5668 5664 5661 5656 5651
5789 5789 5785 5778 5766 5758 5752 5750 5743 5738 5731 5725 5721 5717 5712 5707 5702 5696 5692 5690 5687 5683 5681 5676 5671 5668 5665 5662 5657 5652 5649 5644
5780 5778 5772 5767 5757 5749 5743 5738 5731 5726 5720 5715 5710 5705 5701 5696 5691 5686 5684 5680 5677 5675 5672 5668 5664 5660 5656 5652 5646 5643 5640 5638
5775 5771 5764 5758 5746 5740 5732 5725 5719 5714 5708 5703 5697 5694 5691 5687 5683 5680 5675 5672 5669 5665 5663 5659 5654 5651 5648 5642 5635 5631 5626 5621
5770 5762 5752 5744 5735 5729 5721 5713 5705 5700 5696 5692 5686 5682 5680 5677 5673 5671 5668 5665 5661 5658 5654 5651 5646 5640 5636 5630 5625 5619 5614 5609
5757 5749 5742 5736 5728 5719 5709 5701 5695 5691 5686 5682 5676 5671 5668 5666 5665 5663 5658 5654 5650 5645 5641 5635 5631 5627 5624 5618 5612 5607 5599 5594
5743 5739 5734 5732 5723 5713 5700 5691 5688 5683 5681 5676 5669 5662 5654 5650 5649 5647 5645 5641 5636 5631 5627 5621 5614 5609 5606 5604 5600 5594 5588 5580
5730 5730 5725 5721 5715 5704 5694 5686 5681 5677 5670 5664 5658 5651 5644 5638 5634 5631 5627 5625 5620 5616 5612 5608 5603 5596 5592 5586 5583 5581 5573 5565
5725 5724 5721 5711 5706 5694 5686 5677 5669 5665 5657 5649 5644 5636 5629 5622 5619 5616 5612 5608 5606 5602 5598 5593 5588 5584 5577 5573 5570 5564 5557 5548
5712 5711 5711 5705 5697 5685 5674 5667 5654 5646 5638 5630 5623 5619 5613 5606 5603 5601 5599 5596 5593 5588 5584 5580 5576 5570 5565 5559 5553 5546 5540 5535
5703 5707 5697 5687 5682 5665 5654 5648 5638 5628 5622 5615 5607 5603 5598 5594 5589 5585 5581 5579 5576 5572 5568 5563 5557 5551 5546 5543 5534 5528 5523 5518